Location: Izdebno
(52.6670°N, 16.2170°E)
Time: 17:39:00
(UTC+01:00)

Transit 2A - Pass Details

Date: 03 February 2023
Orbit: 591 x 964 km, 66.7° (Epoch: 21 March)

Event Time Altitude Azimuth Distance (km) Brightness Sun altitude
Rises 00:55:26 0° 320° (NW) 3,423 - -52.8°
Reaches altitude 10° 00:57:51 10° 322° (NW) 2,534 - -52.7°
Maximum altitude 01:03:48 73° 48° (NE) 968 - -52.4°
Drops below altitude 10° 01:10:08 10° 133° (SE) 2,685 - -52.0°
Sets 01:12:45 0° 135° (SE) 3,640 - -51.9°
